Hourly Data Report for June 03, 2018

TORONTO CITY
ONTARIO
Current Station Operator: ECCC - MSC

43°40'00.000" N
79°24'00.000" W
112.50 m
6158355
71508
XTO

Download Data

Hourly Data (June 2018)
Hourly Data Report for June 3, 2018
TIME
LST
Temp Definition
°C
Dew Point Definition
°C
Rel Hum Definition
%
Precip. Amount Definition
mm

Wind Dir Definition
10's deg

Wind Spd Definition
km/h
Visibility Definition
km
Stn Press Definition
kPa
Hmdx Definition


Wind Chill Definition


Weather Definition


00:00 17.5 10.6 64 0.0 LegendMM LegendMM   100.02     LegendNANA
01:00 16.8 10.5 66 0.0 LegendMM LegendMM   99.97     LegendNANA
02:00 16.8 10.8 67 0.0 LegendMM LegendMM   99.95     LegendNANA
03:00 15.9 11.3 74 0.0 LegendMM LegendMM   99.91     LegendNANA
04:00 17.6 7.6 52 0.0 LegendMM LegendMM   99.83     LegendNANA
05:00 17.4 6.0 47 0.0 LegendMM LegendMM   99.81     LegendNANA
06:00 16.1 7.4 56 0.0 LegendMM LegendMM   99.80     LegendNANA
07:00 15.7 8.8 64 0.0 LegendMM LegendMM   99.80     LegendNANA
08:00 15.9 9.4 66 0.0 LegendMM LegendMM   99.75     LegendNANA
09:00 16.1 10.1 68 0.0 LegendMM LegendMM   99.74     LegendNANA
10:00 15.8 10.5 71 0.0 LegendMM LegendMM   99.73     LegendNANA
11:00 17.0 11.2 68 0.0 LegendMM LegendMM   99.68     LegendNANA
12:00 17.0 11.6 70 0.0 LegendMM LegendMM   99.64     LegendNANA
13:00 18.0 12.2 69 0.0 LegendMM LegendMM   99.54     LegendNANA
14:00 19.4 12.8 66 0.0 LegendMM LegendMM   99.42     LegendNANA
15:00 18.0 13.3 74 0.0 LegendMM LegendMM   99.40     LegendNANA
16:00 18.4 14.3 77 0.0 LegendMM LegendMM   99.36     LegendNANA
17:00 18.3 15.3 83 0.0 LegendMM LegendMM   99.25     LegendNANA
18:00 18.6 16.4 87 0.4 LegendMM LegendMM   99.19     LegendNANA
19:00 19.2 16.7 86 0.0 LegendMM LegendMM   99.21     LegendNANA
20:00 19.0 15.6 81 0.0 LegendMM LegendMM   99.14     LegendNANA
21:00 18.1 14.8 81 0.0 LegendMM LegendMM   99.17     LegendNANA
22:00 17.5 15.1 86 0.0 LegendMM LegendMM   99.16     LegendNANA
23:00 17.4 14.5 83 0.0 LegendMM LegendMM   99.17     LegendNANA

Notes on Data Quality.

Legend

  • E = Estimated
  • M = Missing
  • NA = Not Available*
  • [empty] = Indicates an unobserved value
Date modified: